Location: Newark
(46.7636°N, 1.8358°W)
Time: 23:20:28
(UTC+00:00)

Vanguard 1 Rocket - Pass Details

Date: 24 October 2019
Orbit: 651 x 4225 km, 34.3° (Epoch: 10 November)

Event Time Altitude Azimuth Distance (km) Brightness Sun altitude
Rises 18:07:34 0° 277° (W) 8,165 14.1 -11.3°
Reaches altitude 10° 18:19:58 10° 252° (WSW) 7,427 13.3 -13.4°
Maximum altitude 18:26:45 12° 237° (WSW) 7,228 12.9 -14.6°
Drops below altitude 10° 18:33:26 10° 221° (SW) 7,194 12.5 -15.7°
Sets 18:45:08 0° 194° (SSW) 7,553 12.3 -17.8°
